Lebanon, Oregon, United States (97355)
Lat: 44.54N, Lon: 122.91W
Wx Zone: ORZ008
Local Info
Past Weather Observations for Today

NOTE: This archive is for the closest National Weather Service station to Lebanon. Information may differ from the station used for current weather conditions.

Click here for Long-term Archive

Time Weather Temperature Dewpoint Humidity Pressure Winds Precip Visibility
14:35
Clear
57°F / 14°C 28°F / -2°C 33% 30.09 in
(1019 mb)
N 17.3 mph
(N 28 kph)
- 10SM
14:15
Clear
57°F / 14°C 28°F / -2°C 33% 30.09 in
(1019 mb)
NNE 11.5 mph
(NNE 19 kph)
- 10SM
13:55
Clear
55°F / 13°C 28°F / -2°C 36% 30.09 in
(1019 mb)
NE 13.8 mph
(NE 22 kph)
- 10SM
13:35
Clear
55°F / 13°C 28°F / -2°C 36% 30.09 in
(1019 mb)
NNE 11.5 mph
(NNE 19 kph)
- 10SM
13:15
Clear
55°F / 13°C 28°F / -2°C 36% 30.09 in
(1019 mb)
NNE 15 mph
(NNE 24 kph)
- 10SM
12:55
Clear
55°F / 13°C 28°F / -2°C 36% 30.09 in
(1019 mb)
NNE 16.1 mph
(NNE 26 kph)
- 10SM
12:35
Clear
55°F / 13°C 28°F / -2°C 36% 30.09 in
(1019 mb)
NE 17.3 mph
(NE 28 kph)
- 10SM
12:15
Clear
55°F / 13°C 30°F / -1°C 38% 30.09 in
(1019 mb)
NE 16.1 mph
(NE 26 kph)
- 10SM
11:55
Clear
54°F / 12°C 28°F / -2°C 38% 30.09 in
(1019 mb)
N 17.3 mph
(N 28 kph)
- 10SM
11:35
Clear
54°F / 12°C 30°F / -1°C 41% 30.09 in
(1019 mb)
NE 17.3 mph
(NE 28 kph)
- 10SM
11:15
Clear
54°F / 12°C 30°F / -1°C 41% 30.09 in
(1019 mb)
N 17.3 mph
(N 28 kph)
- 10SM
10:55
Clear
52°F / 11°C 32°F / 0°C 47% 30.09 in
(1019 mb)
NNE 11.5 mph
(NNE 19 kph)
- 10SM
10:35
Clear
52°F / 11°C 34°F / 1°C 50% 30.06 in
(1018 mb)
N 16.1 mph
(N 26 kph)
- 10SM
10:15
Clear
50°F / 10°C 34°F / 1°C 54% 30.06 in
(1018 mb)
N 13.8 mph
(N 22 kph)
- 10SM
09:55
Clear
48°F / 9°C 34°F / 1°C 58% 30.06 in
(1018 mb)
NNE 13.8 mph
(NNE 22 kph)
- 10SM
09:35
Clear
48°F / 9°C 36°F / 2°C 62% 30.06 in
(1018 mb)
N 16.1 mph
(N 26 kph)
- 10SM
09:15
Clear
46°F / 8°C 34°F / 1°C 62% 30.04 in
(1017 mb)
NNE 13.8 mph
(NNE 22 kph)
- 10SM
08:55
Clear
46°F / 8°C 36°F / 2°C 66% 30.04 in
(1017 mb)
N 15 mph
(N 24 kph)
- 10SM
08:35
Clear
46°F / 8°C 34°F / 1°C 62% 30.04 in
(1017 mb)
N 16.1 mph
(N 26 kph)
- 10SM
08:15
Clear
45°F / 7°C 34°F / 1°C 66% 30.01 in
(1016 mb)
N 9.2 mph
(N 15 kph)
- 10SM
07:55
Clear
45°F / 7°C 34°F / 1°C 66% 30.01 in
(1016 mb)
N 10.4 mph
(N 17 kph)
- 10SM
07:35
Clear
43°F / 6°C 34°F / 1°C 71% 29.98 in
(1015 mb)
N 9.2 mph
(N 15 kph)
- 10SM
07:15
Clear
43°F / 6°C 34°F / 1°C 71% 29.98 in
(1015 mb)
N 6.9 mph
(N 11 kph)
- 10SM
06:55
Partly Cloudy
43°F / 6°C 34°F / 1°C 71% 29.98 in
(1015 mb)
N 10.4 mph
(N 17 kph)
- 10SM
06:35
Mostly Cloudy
43°F / 6°C 34°F / 1°C 71% 29.98 in
(1015 mb)
N 15 mph
(N 24 kph)
- 10SM
06:15
Mostly Cloudy
43°F / 6°C 36°F / 2°C 76% 29.95 in
(1014 mb)
NNE 10.4 mph
(NNE 17 kph)
- 10SM
05:55
Partly Cloudy
43°F / 6°C 36°F / 2°C 76% 29.95 in
(1014 mb)
NNE 10.4 mph
(NNE 17 kph)
- 10SM
05:35
Partly Cloudy
43°F / 6°C 36°F / 2°C 76% 29.95 in
(1014 mb)
N 13.8 mph
(N 22 kph)
- 10SM
05:15
Partly Cloudy
45°F / 7°C 36°F / 2°C 71% 29.92 in
(1013 mb)
N 12.7 mph
(N 20 kph)
- 10SM
04:55
Clear
43°F / 6°C 36°F / 2°C 76% 29.92 in
(1013 mb)
N 12.7 mph
(N 20 kph)
- 10SM
04:35
Clear
45°F / 7°C 36°F / 2°C 71% 29.89 in
(1012 mb)
N 15 mph
(N 24 kph)
- 10SM
04:15
Partly Cloudy
45°F / 7°C 37°F / 3°C 76% 29.89 in
(1012 mb)
N 13.8 mph
(N 22 kph)
- 10SM
03:55
Clear
45°F / 7°C 37°F / 3°C 76% 29.89 in
(1012 mb)
N 12.7 mph
(N 20 kph)
- 10SM
03:35
Clear
45°F / 7°C 37°F / 3°C 76% 29.86 in
(1011 mb)
N 13.8 mph
(N 22 kph)
- 10SM
03:15
Partly Cloudy
45°F / 7°C 37°F / 3°C 76% 29.86 in
(1011 mb)
N 11.5 mph
(N 19 kph)
- 10SM
02:55
Overcast
45°F / 7°C 39°F / 4°C 81% 29.86 in
(1011 mb)
N 8.1 mph
(N 13 kph)
- 10SM
02:35
Overcast
45°F / 7°C 39°F / 4°C 81% 29.86 in
(1011 mb)
N 8.1 mph
(N 13 kph)
- 10SM
02:15
Overcast
45°F / 7°C 43°F / 6°C 93% 29.86 in
(1011 mb)
Calm - 10SM
01:55
Overcast
46°F / 8°C 43°F / 6°C 87% 29.83 in
(1010 mb)
Calm - 10SM
01:35
Overcast
46°F / 8°C 43°F / 6°C 87% 29.83 in
(1010 mb)
Calm - 10SM
01:15
Overcast
46°F / 8°C 43°F / 6°C 87% 29.83 in
(1010 mb)
Calm - 10SM
00:55
Mostly Cloudy
46°F / 8°C 43°F / 6°C 87% 29.8 in
(1009 mb)
N 3.5 mph
(N 6 kph)
- 10SM
00:35
Mostly Cloudy
46°F / 8°C 43°F / 6°C 87% 29.8 in
(1009 mb)
N 4.6 mph
(N 7 kph)
- 10SM
00:15
Overcast
46°F / 8°C 45°F / 7°C 93% 29.8 in
(1009 mb)
Calm - 10SM
Time Weather Temperature Dewpoint Humidity Pressure Winds Precip Visibility


Weather for websites

WeatherForYou.com, LLC is not responsible for any damages or problems caused by this service. Current weather conditions are obtained from the closest station including government and personal stations which may have varying degrees of accuracy. Weather forecasts are derived from the NOAA NDFD. Like all things, this site belongs to Jesus Christ... He just trusts me to maintain it. If you have any questions or comments email webmaster@weatherforyou.com

Copyright © 2015, WeatherForYou.com LLC. All rights reserved.